Laramie, WY

10:54 PM MDT on March 25, 2017 (GMT -0600)
Laramie Regional

Weather History for KLAR - July, 2013

Change the Weather History Date:

Monday, July 15, 2013

  Actual Average Record
Temperature  
Mean Temperature 67 °F 64 °F  
Max Temperature 79 °F 81 °F 92 °F (2006)
Min Temperature 55 °F 48 °F 33 °F (1962)
Degree Days  
Heating Degree Days 0 2  
Month to date heating degree days 8 40  
Since 1 June heating degree days 111 281  
Since 1 July heating degree days 8 40  
Cooling Degree Days 2 1  
Month to date cooling degree days 41 15  
Year to date cooling degree days 77 22  
Since 1 June cooling degree days 77 22  
Growing Degree Days 16 (Base 50)    
Moisture  
Dew Point 55 °F    
Average Humidity 72    
Maximum Humidity 100    
Minimum Humidity 43    
Precipitation  
Precipitation 0.00 in 0.04 in 0.54 in (1990)
Month to date precipitation 1.29 0.63  
Year to date precipitation 4.70 6.12  
Sea Level Pressure  
Sea Level Pressure 30.03 in    
Wind  
Wind Speed 16 mph (SSE)    
Max Wind Speed 30 mph    
Max Gust Speed 36 mph    
Visibility 9 miles    
Events      
T = Trace of Precipitation, MM = Missing Value Source: NWS Daily Summary

Daily Weather History Graph

Daily Weather History Graph

Search for Another Location

Airport or City:

Trip Planner

Search our weather history database for the weather conditions in past years. The results will help you decide how hot, cold, wet, or windy it might be!

Date:

Astronomy

Jul. 15, 2013 Rise Set
Actual Time 5:42 AM MDT 8:34 PM MDT
Civil Twilight 5:10 AM MDT 9:06 PM MDT
Nautical Twilight 4:28 AM MDT 9:48 PM MDT
Astronomical Twilight 3:40 AM MDT 10:35 PM MDT
Moon 1:10 PM MDT (7/15) No Moon Set
Length of Visible Light 15h 56m
Length of Day
14h 51m
Waxing Crescent, 46% of the Moon is Illuminated
Jul 15
Waxing Crescent
Jul 15
First Quarter
Jul 22
Full
Jul 29
Last Quarter
Aug 6
New

Hourly Weather History & Observations

Time (MDT) Temp. Dew Point Humidity Pressure Visibility Wind Dir Wind Speed Gust Speed Precip Events Conditions
12:53 AM 59.0 °F 55.9 °F 90% 30.03 in 8.0 mi SE 10.4 mph - N/A   Partly Cloudy
1:53 AM 57.9 °F 55.0 °F 90% 30.02 in 8.0 mi SE 5.8 mph - N/A   Partly Cloudy
2:46 AM 57.2 °F 55.4 °F 94% 30.33 in 8.0 mi SE 8.1 mph - N/A   Mostly Cloudy
2:53 AM 57.9 °F 55.9 °F 93% 30.01 in 7.0 mi SE 6.9 mph - N/A   Mostly Cloudy
3:53 AM 57.0 °F 55.0 °F 93% 30.00 in 7.0 mi SSE 5.8 mph - N/A   Clear
4:53 AM 55.9 °F 55.0 °F 97% 30.00 in 5.0 mi Calm Calm - N/A   Clear
5:53 AM 55.0 °F 53.1 °F 93% 30.01 in 4.0 mi South 3.5 mph - N/A   Clear
6:53 AM 57.9 °F 55.9 °F 93% 30.00 in 4.0 mi North - - N/A   Partly Cloudy
7:53 AM 62.1 °F 57.0 °F 84% 29.99 in 6.0 mi SSE 13.8 mph - N/A   Haze
8:12 AM 62.6 °F 57.2 °F 82% 30.32 in 7.0 mi SSE 11.5 mph - N/A   Mostly Cloudy
8:39 AM 62.6 °F 55.4 °F 77% 30.31 in 9.0 mi SSE 16.1 mph - N/A   Scattered Clouds
8:53 AM 64.0 °F 55.9 °F 75% 29.99 in 9.0 mi SSE 18.4 mph - N/A   Scattered Clouds
9:01 AM 64.4 °F 55.4 °F 73% 30.32 in 10.0 mi SSE 12.7 mph 21.9 mph N/A   Mostly Cloudy
9:13 AM 66.2 °F 55.4 °F 68% 30.31 in 10.0 mi SE 16.1 mph - N/A   Scattered Clouds
9:46 AM 66.2 °F 55.4 °F 68% 30.31 in 10.0 mi SSE 19.6 mph 23.0 mph N/A   Mostly Cloudy
9:53 AM 66.9 °F 55.9 °F 68% 29.99 in 10.0 mi SSE 17.3 mph - N/A   Scattered Clouds
10:53 AM 70.0 °F 55.0 °F 59% 29.97 in 10.0 mi SSE 21.9 mph - N/A   Partly Cloudy
11:53 AM 72.0 °F 55.0 °F 55% 29.96 in 10.0 mi SSE 21.9 mph 26.5 mph N/A   Clear
12:53 PM 75.0 °F 55.0 °F 50% 29.94 in 10.0 mi SE 21.9 mph 29.9 mph N/A   Clear
1:53 PM 77.0 °F 54.0 °F 45% 29.91 in 10.0 mi SSE 20.7 mph 27.6 mph N/A   Clear
2:53 PM 75.9 °F 54.0 °F 46% 29.90 in 10.0 mi SSE 18.4 mph 26.5 mph N/A   Clear
3:53 PM 75.9 °F 54.0 °F 46% 29.89 in 10.0 mi SSE 23.0 mph 31.1 mph N/A   Partly Cloudy
4:53 PM 75.0 °F 55.9 °F 51% 29.88 in 10.0 mi SE 24.2 mph 34.5 mph N/A   Clear
5:53 PM 72.0 °F 55.0 °F 55% 29.90 in 10.0 mi SSE 24.2 mph 29.9 mph N/A   Clear
6:53 PM 66.9 °F 55.9 °F 68% 29.92 in 10.0 mi SE 18.4 mph 31.1 mph N/A   Clear
7:53 PM 66.0 °F 55.9 °F 70% 29.94 in 10.0 mi SE 16.1 mph - N/A   Clear
8:53 PM 63.0 °F 53.1 °F 70% 29.94 in 10.0 mi SSE 15.0 mph 21.9 mph N/A   Clear
9:53 PM 61.0 °F 53.1 °F 75% 29.94 in 10.0 mi SSE 15.0 mph - N/A   Clear
10:53 PM 61.0 °F 52.0 °F 72% 29.93 in 10.0 mi SSE 15.0 mph - N/A   Clear
11:53 PM 59.0 °F 51.1 °F 75% 29.93 in 10.0 mi SSE 17.3 mph - N/A   Clear